• In Hungary
  • List of Countries
  • For 7 days
  • Water Temperature
  • Satellite Maps
  • Weather Map
  • News
  • Weather Widgets
  • user-avatar
    Login

    Hourly Weather Albany

    Today, 19 September, Wednesday

    Time Temperature Precipitation Wind Pressure Humidity
    00:00 +11°C° 0 mm 4 mps 767 mmHg 85%
    01:00 +10°C° 0 mm 4 mps 767 mmHg 86%
    02:00 +10°C° 0 mm 4 mps 766 mmHg 87%
    03:00 +10°C° 0 mm 4 mps 766 mmHg 87%
    04:00 +10°C° 0 mm 4 mps 766 mmHg 87%
    05:00 +10°C° 0 mm 3 mps 766 mmHg 87%
    06:00 +11°C° 0 mm 3 mps 766 mmHg 86%
    07:00 +11°C° 0 mm 3 mps 767 mmHg 85%
    08:00 +12°C° 0 mm 4 mps 767 mmHg 83%
    09:00 +13°C° 0 mm 4 mps 767 mmHg 79%
    10:00 +14°C° 0 mm 4 mps 767 mmHg 75%
    11:00 +14°C° 0 mm 4 mps 766 mmHg 71%
    12:00 +15°C° 0 mm 4 mps 766 mmHg 69%
    13:00 +17°C° 0 mm 4 mps 766 mmHg 66%
    14:00 +18°C° 0 mm 4 mps 765 mmHg 64%
    15:00 +17°C° 0 mm 4 mps 765 mmHg 67%
    16:00 +17°C° 0 mm 4 mps 765 mmHg 70%
    17:00 +15°C° 0 mm 4 mps 765 mmHg 74%
    18:00 +13°C° 0 mm 3 mps 765 mmHg 79%
    19:00 +12°C° 0 mm 3 mps 765 mmHg 84%
    20:00 +10°C° 0 mm 3 mps 765 mmHg 90%
    21:00 +10°C° 0 mm 2 mps 765 mmHg 91%
    22:00 +9°C° 0 mm 2 mps 765 mmHg 92%
    23:00 +9°C° 0 mm 2 mps 766 mmHg 93%

    Tomorrow, 20 September, Thursday

    Time Temperature Precipitation Wind Pressure Humidity
    00:00 +9°C° 0 mm 2 mps 765 mmHg 94%
    01:00 +9°C° 0 mm 2 mps 765 mmHg 95%
    02:00 +9°C° 0 mm 2 mps 765 mmHg 96%
    03:00 +9°C° 0 mm 3 mps 764 mmHg 96%
    04:00 +8°C° 0 mm 3 mps 764 mmHg 96%
    05:00 +8°C° 0 mm 3 mps 764 mmHg 96%
    06:00 +9°C° 0 mm 3 mps 764 mmHg 92%
    07:00 +10°C° 0 mm 3 mps 763 mmHg 88%
    08:00 +12°C° 0 mm 4 mps 763 mmHg 85%
    09:00 +14°C° 0 mm 4 mps 763 mmHg 76%
    10:00 +17°C° 0 mm 3 mps 763 mmHg 68%
    11:00 +20°C° 0 mm 3 mps 762 mmHg 59%
    12:00 +21°C° 0 mm 3 mps 762 mmHg 56%
    13:00 +22°C° 0 mm 3 mps 761 mmHg 53%
    14:00 +24°C° 0 mm 3 mps 760 mmHg 51%
    15:00 +22°C° 0 mm 3 mps 760 mmHg 57%
    16:00 +20°C° 0 mm 3 mps 760 mmHg 63%
    17:00 +19°C° 0 mm 4 mps 760 mmHg 69%
    18:00 +18°C° 0 mm 4 mps 760 mmHg 76%
    19:00 +16°C° 0 mm 3 mps 761 mmHg 82%
    20:00 +13°C° 0 mm 3 mps 761 mmHg 89%
    21:00 +12°C° 0 mm 3 mps 761 mmHg 90%
    22:00 +12°C° 0 mm 3 mps 761 mmHg 91%
    23:00 +11°C° 0 mm 3 mps 761 mmHg 92%

    Day after tomorrow, 21 September, Friday

    Time Temperature Precipitation Wind Pressure Humidity
    00:00 +11°C° 0 mm 3 mps 761 mmHg 93%
    01:00 +11°C° 0 mm 3 mps 761 mmHg 93%
    02:00 +10°C° 0 mm 3 mps 761 mmHg 94%
    03:00 +10°C° 0 mm 3 mps 761 mmHg 94%
    04:00 +10°C° 0 mm 3 mps 761 mmHg 95%
    05:00 +9°C° 0 mm 3 mps 761 mmHg 95%
    06:00 +10°C° 0 mm 3 mps 761 mmHg 93%
    07:00 +11°C° 0 mm 3 mps 761 mmHg 90%
    08:00 +12°C° 0 mm 4 mps 762 mmHg 87%
    09:00 +14°C° 0 mm 4 mps 762 mmHg 79%
    10:00 +17°C° 0 mm 3 mps 762 mmHg 70%
    11:00 +19°C° 0 mm 3 mps 762 mmHg 61%
    12:00 +19°C° 0 mm 4 mps 762 mmHg 60%
    13:00 +20°C° 0 mm 4 mps 761 mmHg 59%
    14:00 +20°C° 0 mm 4 mps 761 mmHg 59%
    15:00 +19°C° 0 mm 5 mps 761 mmHg 67%
    16:00 +16°C° 0 mm 5 mps 762 mmHg 75%
    17:00 +15°C° 0 mm 5 mps 762 mmHg 83%
    18:00 +14°C° 0 mm 5 mps 763 mmHg 83%
    19:00 +13°C° 0 mm 4 mps 763 mmHg 83%
    20:00 +13°C° 0 mm 4 mps 764 mmHg 84%
    21:00 +13°C° 0 mm 4 mps 764 mmHg 83%
    22:00 +12°C° 0 mm 4 mps 765 mmHg 83%
    23:00 +12°C° 0 mm 3 mps 765 mmHg 82%

    22 September, Saturday

    Time Temperature Precipitation Wind Pressure Humidity
    00:00 +12°C° 0 mm 4 mps 765 mmHg 83%
    01:00 +12°C° 0 mm 4 mps 765 mmHg 83%
    02:00 +12°C° 0 mm 4 mps 765 mmHg 83%
    03:00 +12°C° 0.1 mm 4 mps 765 mmHg 84%
    04:00 +12°C° 0.1 mm 5 mps 765 mmHg 84%
    05:00 +12°C° 0.1 mm 5 mps 765 mmHg 85%
    06:00 +13°C° 0 mm 5 mps 765 mmHg 84%
    07:00 +13°C° 0 mm 5 mps 766 mmHg 83%
    08:00 +13°C° 0 mm 6 mps 766 mmHg 82%
    09:00 +14°C° 0 mm 6 mps 766 mmHg 82%
    10:00 +14°C° 0 mm 6 mps 766 mmHg 81%
    11:00 +14°C° 0 mm 7 mps 766 mmHg 81%
    12:00 +14°C° 0 mm 7 mps 765 mmHg 81%
    13:00 +14°C° 0 mm 7 mps 765 mmHg 81%
    14:00 +14°C° 0 mm 7 mps 765 mmHg 81%
    15:00 +13°C° 0 mm 8 mps 765 mmHg 81%
    16:00 +13°C° 0 mm 8 mps 765 mmHg 82%
    17:00 +13°C° 0 mm 8 mps 765 mmHg 83%
    18:00 +13°C° 0 mm 8 mps 765 mmHg 83%
    19:00 +12°C° 0 mm 8 mps 765 mmHg 83%
    20:00 +12°C° 0 mm 8 mps 766 mmHg 83%
    21:00 +12°C° 0 mm 8 mps 766 mmHg 83%
    22:00 +12°C° 0 mm 8 mps 766 mmHg 83%
    23:00 +12°C° 0 mm 8 mps 766 mmHg 84%

    23 September, Sunday

    Time Temperature Precipitation Wind Pressure Humidity
    00:00 +12°C° 0.1 mm 7 mps 765 mmHg 85%
    01:00 +12°C° 0.1 mm 7 mps 765 mmHg 87%
    02:00 +12°C° 0.1 mm 7 mps 764 mmHg 89%
    03:00 +12°C° 0.1 mm 7 mps 764 mmHg 89%
    04:00 +12°C° 0.1 mm 7 mps 764 mmHg 90%
    05:00 +12°C° 0.1 mm 7 mps 764 mmHg 91%
    06:00 +12°C° 0.1 mm 7 mps 764 mmHg 91%
    07:00 +14°C° 0.1 mm 7 mps 764 mmHg 90%
    08:00 +14°C° 0.1 mm 7 mps 765 mmHg 90%
    09:00 +14°C° 0.2 mm 7 mps 765 mmHg 90%
    10:00 +14°C° 0.2 mm 6 mps 764 mmHg 91%
    11:00 +14°C° 0.2 mm 6 mps 764 mmHg 91%
    12:00 +15°C° 0.2 mm 6 mps 764 mmHg 90%
    13:00 +15°C° 0.2 mm 6 mps 764 mmHg 89%
    14:00 +15°C° 0.2 mm 6 mps 763 mmHg 89%
    15:00 +15°C° 0.2 mm 6 mps 763 mmHg 89%
    16:00 +15°C° 0.2 mm 6 mps 763 mmHg 90%
    17:00 +14°C° 0.2 mm 6 mps 763 mmHg 91%
    18:00 +14°C° 0.1 mm 6 mps 764 mmHg 91%
    19:00 +14°C° 0.1 mm 6 mps 764 mmHg 92%
    20:00 +13°C° 0.1 mm 6 mps 764 mmHg 93%
    21:00 +13°C° 0.1 mm 6 mps 764 mmHg 92%
    22:00 +13°C° 0.1 mm 6 mps 764 mmHg 92%
    23:00 +13°C° 0.1 mm 6 mps 764 mmHg 92%

    24 September, Monday

    Time Temperature Precipitation Wind Pressure Humidity
    00:00 +13°C° 0.1 mm 6 mps 764 mmHg 92%
    01:00 +13°C° 0.1 mm 5 mps 763 mmHg 92%
    02:00 +13°C° 0.1 mm 5 mps 763 mmHg 92%
    03:00 +13°C° 0.2 mm 5 mps 763 mmHg 93%
    04:00 +13°C° 0.2 mm 5 mps 763 mmHg 94%
    05:00 +13°C° 0.2 mm 5 mps 762 mmHg 94%
    06:00 +13°C° 0.2 mm 6 mps 763 mmHg 94%
    07:00 +13°C° 0.2 mm 6 mps 763 mmHg 93%
    08:00 +14°C° 0.2 mm 6 mps 763 mmHg 92%
    09:00 +14°C° 0.3 mm 6 mps 763 mmHg 91%
    10:00 +14°C° 0.3 mm 6 mps 763 mmHg 90%
    11:00 +15°C° 0.3 mm 6 mps 762 mmHg 89%
    12:00 +15°C° 0.2 mm 6 mps 762 mmHg 89%
    13:00 +15°C° 0.2 mm 6 mps 761 mmHg 88%
    14:00 +15°C° 0.2 mm 6 mps 761 mmHg 88%
    15:00 +15°C° 0.1 mm 6 mps 761 mmHg 87%
    16:00 +15°C° 0.1 mm 6 mps 761 mmHg 86%
    17:00 +15°C° 0.1 mm 6 mps 761 mmHg 85%
    18:00 +14°C° 0.1 mm 6 mps 762 mmHg 86%
    19:00 +14°C° 0.1 mm 6 mps 762 mmHg 87%
    20:00 +13°C° 0.1 mm 5 mps 762 mmHg 88%
    21:00 +13°C° 0.1 mm 5 mps 762 mmHg 89%
    22:00 +13°C° 0.1 mm 5 mps 762 mmHg 90%
    23:00 +13°C° 0.1 mm 4 mps 762 mmHg 91%
    Show more